Showing default

STPSAT-6, 49817

Orbit data source: Space-Track

STPSAT-6, 49817 is a payload satellite owned by USAF STP (US) in GEO that was launched on Tue, 07 Dec 2021 UTC via an ATLAS V 551 launch vehicle from the Air Force Eastern Test Range (AFETR). Payloads include a variety of satellites, spacecraft, and rockets equipped with specific instruments for various scientific and technological missions. These include communications satellites like Starlink; space stations such as the ISS; scientific satellites like the Hubble; Earth observation satellites from companies like Planet Labs, Umbra, and HawkEye 360; GPS; miniature CubeSats for education and research; and military/defense satellites.

Loading next visibility...
STPSAT-6 details
Identifier
49817, 2021-118A
Orbit
GEO
Last TLE update7 hours ago
Origin
Flag of USUSAF STP (US)
ManufacturerNGAS
MissionOperational Defense Technology
Bus & MotorA-500, Unknown motor
Mass~1,000 kg wet, ~1,000 kg dry
Launch date (UTC)
2021-12-07 (3 years ago)
Launch vehicle
ATLAS V 551
Launch site
Air Force Eastern Test Range (AFETR)
Object type
Payload
Rocket body
Debris
Shape & HBRBox + 1 Pan, 2 m
Radar Cross Section2.500 m², Large (>1 m²)

Expand to show TLE details & history

TLE from 7 hours ago
0 STPSAT-6
1 49817U 21118A   24361.22146340 -.00000017  00000-0  00000-0 0  9999
2 49817   0.0179 294.3209 0001966   5.8580 123.0760  1.00271547 11160
Epoch: 2024-12-26T05:18Z
Definitive object data (Epoch: 2024-12-26T05:18:54.437Z)
Latitude0.02813°
Longitude-111.66463°
Altitude35,790.71 km
Speed3.074 km/s
True Right ascension04h 13m 03s
True Declination0° 01' 41"
Sunlit
Object was in daylight at TLE epoch
Visualization TLE readout
Latitude-0.01152°
Longitude-9.2215°
Altitude35,791.941 km
Speed3.074 km/s
Apparent Right ascension10h 59m 23s
Apparent Declination-6° 14' 24"
Sunlit
Object is in daylight
Visualization observer readout
Local Sidereal Time11:29:09
Azimuth190.199° SSW
Elevation43.336°
Doppler factor1
Orbital elements
Apogee altitude35,796.022 km
Perigee altitude35,779.442 km
Semi-major axis42,165.869 km
Eccentricity0.0001966
Inclination0.0179°
RAAN294.3209°
Arg. of periapsis5.858°
True anomaly123.09488°
Mean anomaly123.076°
Eccentric anomaly123.08544°
Mean motion0.25067 °/min
BSTARUnknown
Orbital period1436.15 mins
Loading historical data...
49817 neighbors
Authenticating...
Loading maneuver chart data...
Loading historical data...
Loading historical data...
Loading historical data...
Loading historical data...
Loading historical data...
Loading historical data...
Loading historical data...
Other satellites on launch #118 in the year 2021 (2021-12-07 UTC)

STPSAT-6 Visibility forecast

Observer location: undefined°, undefined

Span
Click to sort rows by Start time (UTC) header in descending order
Start Az.
Max El. time (UTC)
Max El. Az.
Max El.
End time (UTC)
End Az.
1440 mins2024-12-26 12:07:42.131Z190.195° SSW2024-12-27 05:39:42.131Z190.153° SSW34.476°2024-12-27 12:07:42.131Z190.197° SSW
|